GW1599 Weather Reports


Display with metric or nautical units.
time (UTC)temp
F
wind
direction
speed
MPH
gust
MPH
rain 1hr
in
rain 24hr
in
rain mn
in
humidity
%
barometer
mb
20260510142128 69 165 2.0 4.0 0.00 0.00 0.00 70 1015.9
20260510140929 69 169 1.0 3.0 0.00 0.00 0.00 70 1015.5
20260510135715 69 218 1.0 5.0 0.00 0.00 0.00 71 1015.9
20260510135116 68 188 2.0 3.0 0.00 0.00 0.00 73 1015.5
20260510134511 67 208 0.0 3.0 0.00 0.00 0.00 74 1015.5
20260510133348 66 163 2.0 2.0 0.00 0.00 0.00 78 1015.5
20260510132749 66 191 1.0 2.0 0.00 0.00 0.00 77 1015.5
20260510131517 62 152 1.0 3.0 0.00 0.00 0.00 87 1015.5
20260510130920 61 132 1.0 3.0 0.00 0.00 0.00 92 1015.5
20260510130331 60 135 0.0 0.0 0.00 0.00 0.00 95 1015.5
20260510125751 59 75 0.0 0.0 0.00 0.00 0.00 95 1015.5
20260510125144 58 230 0.0 0.0 0.00 0.00 0.00 97 1015.5
20260510123308 55 205 0.0 0.0 0.00 0.00 0.00 97 1015.5
20260510122729 54 238 0.0 0.0 0.00 0.00 0.00 97 1015.2
20260510122133 54 238 0.0 0.0 0.00 0.00 0.00 97 1015.2
20260510121511 52 300 0.0 0.0 0.00 0.00 0.00 97 1015.2
20260510120949 50 300 0.0 0.0 0.00 0.00 0.00 96 1015.2
20260510115743 49 245 0.0 0.0 0.00 0.00 0.00 96 1014.9
20260510114518 48 223 0.0 0.0 0.00 0.00 0.00 95 1014.9
20260510113914 47 22 0.0 0.0 0.00 0.00 0.00 94 1014.9
20260510112710 47 22 0.0 0.0 0.00 0.00 0.00 94 1014.9
20260510112131 47 22 0.0 0.0 0.00 0.00 0.00 94 1014.5
20260510111532 47 22 0.0 0.0 0.00 0.00 0.00 94 1014.5
20260510110933 47 22 0.0 0.0 0.00 0.00 0.00 93 1014.2
20260510110312 47 22 0.0 0.0 0.00 0.00 0.00 93 1014.2
20260510105747 47 22 0.0 0.0 0.00 0.00 0.00 93 1014.2
20260510105143 47 22 0.0 0.0 0.00 0.00 0.00 93 1014.2
20260510103934 47 22 0.0 0.0 0.00 0.00 0.00 93 1013.8
20260510103324 47 22 0.0 0.0 0.00 0.00 0.00 93 1013.8
20260510102717 47 22 0.0 0.0 0.00 0.00 0.00 93 1013.8
20260510102142 47 22 0.0 0.0 0.00 0.00 0.00 93 1013.8
20260510101510 47 22 0.0 0.0 0.00 0.00 0.00 93 1013.8
20260510100351 47 22 0.0 0.0 0.00 0.00 0.00 93 1013.8
20260510095710 47 22 0.0 0.0 0.00 0.00 0.00 93 1013.5
20260510095139 47 22 0.0 0.0 0.00 0.00 0.00 93 1013.5
20260510094539 48 22 0.0 0.0 0.00 0.00 0.00 93 1013.5
20260510093908 48 22 0.0 0.0 0.00 0.00 0.00 93 1013.5
20260510093327 48 22 0.0 0.0 0.00 0.00 0.00 93 1013.5
20260510092725 48 22 0.0 0.0 0.00 0.00 0.00 93 1013.5
20260510092129 48 22 0.0 0.0 0.00 0.00 0.00 93 1013.5
20260510091537 48 22 0.0 0.0 0.00 0.00 0.00 92 1013.2
20260510090909 48 22 0.0 0.0 0.00 0.00 0.00 93 1013.2
20260510090341 48 22 0.0 0.0 0.00 0.00 0.00 93 1013.2
20260510085716 48 22 0.0 0.0 0.00 0.00 0.00 93 1013.2
20260510083948 48 22 0.0 0.0 0.00 0.00 0.00 92 1013.2
20260510083352 48 22 0.0 0.0 0.00 0.00 0.00 92 1013.2
20260510082744 48 22 0.0 0.0 0.00 0.00 0.00 92 1013.2
20260510082119 48 22 0.0 0.0 0.00 0.00 0.00 92 1012.8
20260510081549 48 22 0.0 0.0 0.00 0.00 0.00 92 1012.8
20260510080918 48 22 0.0 0.0 0.00 0.00 0.00 92 1012.8
20260510080327 48 22 0.0 0.0 0.00 0.00 0.00 91 1012.8
20260510075750 49 22 0.0 0.0 0.00 0.00 0.00 91 1012.8
20260510074542 49 22 0.0 0.0 0.00 0.00 0.00 91 1012.5
20260510073942 49 22 0.0 0.0 0.00 0.00 0.00 91 1012.5
20260510073347 49 22 0.0 0.0 0.00 0.00 0.00 91 1012.5
20260510072734 49 22 0.0 0.0 0.00 0.00 0.00 91 1012.5
20260510072126 49 22 0.0 0.0 0.00 0.00 0.00 91 1012.5
20260510071546 49 22 0.0 0.0 0.00 0.00 0.00 91 1012.8
20260510070925 49 22 0.0 0.0 0.00 0.00 0.00 91 1012.8
20260510070312 49 22 0.0 0.0 0.00 0.00 0.00 91 1012.8
20260510065734 49 22 0.0 0.0 0.00 0.00 0.00 91 1012.5
20260510065141 50 22 0.0 0.0 0.00 0.00 0.00 91 1012.8
20260510063923 50 22 0.0 0.0 0.00 0.00 0.00 91 1012.8
20260510063330 50 22 0.0 0.0 0.00 0.00 0.00 91 1012.8
20260510062709 50 22 0.0 0.0 0.00 0.00 0.00 91 1012.8
20260510062146 50 22 0.0 0.0 0.00 0.00 0.00 91 1012.8
20260510061534 50 22 0.0 0.0 0.00 0.00 0.00 91 1012.8
20260510060949 50 22 0.0 0.0 0.00 0.00 0.00 90 1012.8
20260510060341 50 22 0.0 0.0 0.00 0.00 0.00 90 1012.8
20260510055725 50 22 0.0 0.0 0.00 0.00 0.00 90 1012.8
20260510055118 50 22 0.0 0.0 0.00 0.00 0.00 90 1012.8
20260510054538 50 22 0.0 0.0 0.00 0.00 0.00 90 1012.8
20260510053314 51 22 0.0 0.0 0.00 0.00 0.00 90 1012.8
20260510052149 51 22 0.0 0.0 0.00 0.00 0.00 90 1012.8
20260510051548 51 22 0.0 0.0 0.00 0.00 0.00 90 1012.8
20260510050912 51 22 0.0 0.0 0.00 0.00 0.00 90 1012.8
20260510050332 52 22 0.0 0.0 0.00 0.00 0.00 90 1012.8
20260510045721 52 22 0.0 0.0 0.00 0.00 0.00 90 1013.2
20260510045110 52 22 0.0 0.0 0.00 0.00 0.00 90 1013.2
20260510043931 52 22 0.0 0.0 0.00 0.00 0.00 89 1013.2
20260510043338 52 22 0.0 0.0 0.00 0.00 0.00 89 1013.2
20260510042711 52 22 0.0 0.0 0.00 0.00 0.00 89 1013.2
20260510042145 52 22 0.0 0.0 0.00 0.00 0.00 89 1013.2
20260510041533 53 22 0.0 0.0 0.00 0.00 0.00 89 1013.2
20260510040924 53 22 0.0 0.0 0.00 0.00 0.00 89 1012.8
20260510040343 53 22 0.0 0.0 0.00 0.00 0.00 88 1013.2
20260510035747 53 22 0.0 0.0 0.00 0.00 0.00 88 1013.2
20260510035123 53 22 0.0 0.0 0.00 0.00 0.00 88 1012.8
20260510034541 54 22 0.0 0.0 0.00 0.00 0.00 88 1013.2
20260510033909 54 22 0.0 0.0 0.00 0.00 0.00 87 1012.8
20260510033316 54 22 0.0 0.0 0.00 0.00 0.00 87 1012.8
20260510032752 54 22 0.0 0.0 0.00 0.00 0.00 87 1012.8
20260510032147 54 22 0.0 0.0 0.00 0.00 0.00 87 1012.8
20260510031524 55 22 0.0 0.0 0.00 0.00 0.00 87 1012.8
20260510030919 55 22 0.0 0.0 0.00 0.00 0.00 86 1012.5
20260510030328 55 22 0.0 0.0 0.00 0.00 0.00 86 1012.8
20260510025732 56 22 0.0 0.0 0.00 0.00 0.00 86 1012.5
20260510025122 56 22 0.0 0.0 0.00 0.00 0.00 85 1012.5
20260510023940 56 22 0.0 0.0 0.00 0.00 0.00 84 1012.5
20260510022739 57 22 0.0 0.0 0.00 0.00 0.00 84 1012.5
20260510021510 58 22 0.0 0.0 0.00 0.00 0.00 82 1012.1
20260510020952 58 22 0.0 0.0 0.00 0.00 0.00 82 1011.8
20260510015740 59 22 0.0 0.0 0.00 0.00 0.00 81 1011.8
20260510015143 59 22 0.0 0.0 0.00 0.00 0.00 81 1011.8
20260510014511 60 22 0.0 0.0 0.00 0.00 0.00 80 1011.5
20260510013946 60 22 0.0 0.0 0.00 0.00 0.00 79 1011.5
20260510012725 61 22 0.0 0.0 0.00 0.00 0.00 78 1011.5
20260510012131 62 22 0.0 0.0 0.00 0.00 0.00 78 1011.5
20260510011556 62 22 0.0 0.0 0.00 0.00 0.00 77 1011.1
20260510010951 63 22 0.0 0.0 0.00 0.00 0.00 76 1011.1
20260510010348 63 22 0.0 0.0 0.00 0.00 0.00 75 1011.1
20260510005143 64 22 0.0 0.0 0.00 0.00 0.00 73 1011.1
20260510004550 64 22 0.0 0.0 0.00 0.00 0.00 73 1010.8
20260510003307 65 22 0.0 0.0 0.00 0.00 0.00 71 1010.8
20260510002716 65 22 0.0 0.0 0.00 0.00 0.00 70 1010.4
20260510001511 66 32 0.0 0.0 0.00 0.00 0.00 69 1010.4
20260510000943 66 32 0.0 1.0 0.00 0.00 0.00 69 1010.4
20260510000349 66 32 0.0 2.0 0.00 0.00 0.00 69 1010.4
20260509235710 67 160 0.0 0.0 0.00 0.00 0.00 69 1010.4
20260509235126 67 160 0.0 1.0 0.00 0.00 0.00 69 1010.4
20260509234543 67 182 1.0 2.0 0.00 0.00 0.00 68 1010.4
20260509233949 67 285 1.0 1.0 0.00 0.00 0.00 68 1010.4
20260509233339 68 289 1.0 3.0 0.00 0.00 0.00 67 1010.4
20260509232130 68 290 0.0 3.0 0.00 0.00 0.00 67 1010.4
20260509231509 68 216 4.0 7.0 0.00 0.00 0.00 66 1010.4
20260509230951 68 240 3.0 5.0 0.00 0.00 0.00 67 1010.1
20260509230332 68 259 0.0 0.0 0.00 0.00 0.00 65 1010.1
20260509225146 68 227 1.0 4.0 0.00 0.00 0.00 66 1010.4
20260509224535 69 203 2.0 3.0 0.00 0.00 0.00 64 1010.1
20260509223928 69 235 3.0 3.0 0.00 0.00 0.00 65 1010.1
20260509223343 69 215 1.0 4.0 0.00 0.00 0.00 65 1010.1
20260509222130 69 173 2.0 5.0 0.00 0.00 0.00 63 1010.1
20260509220917 69 197 1.0 5.0 0.00 0.00 0.00 63 1010.4
20260509220325 69 195 2.0 4.0 0.00 0.00 0.00 62 1010.4
20260509215723 70 217 0.0 3.0 0.00 0.00 0.00 62 1010.4
20260509215134 70 213 3.0 5.0 0.00 0.00 0.00 62 1010.4
20260509214520 70 229 1.0 5.0 0.00 0.00 0.00 63 1010.4
20260509213334 70 168 5.0 6.0 0.00 0.00 0.00 61 1010.4
20260509212738 70 174 5.0 7.0 0.00 0.00 0.00 60 1010.1
20260509212145 71 81 5.0 5.0 0.00 0.00 0.00 60 1010.4
20260509211542 71 240 2.0 6.0 0.00 0.00 0.00 60 1010.4
20260509210931 71 185 2.0 10.0 0.00 0.00 0.00 61 1010.4
20260509210318 70 215 2.0 5.0 0.00 0.00 0.00 64 1010.4
20260509205747 70 242 3.0 4.0 0.00 0.00 0.00 64 1010.4
20260509205134 70 136 2.0 4.0 0.00 0.00 0.00 64 1010.4
20260509204537 70 217 2.0 4.0 0.00 0.00 0.00 63 1010.4
20260509203950 71 185 1.0 7.0 0.00 0.00 0.00 62 1010.1
20260509203321 71 206 2.0 6.0 0.00 0.00 0.00 61 1010.1
20260509202753 71 141 2.0 5.0 0.00 0.00 0.00 61 1010.1
20260509202126 71 158 1.0 7.0 0.00 0.00 0.00 60 1010.1
20260509201532 72 233 5.0 6.0 0.00 0.00 0.00 60 1010.1
20260509200939 71 196 3.0 7.0 0.00 0.00 0.00 63 1010.1
20260509200309 71 160 4.0 4.0 0.00 0.00 0.00 62 1010.1
20260509195125 71 155 2.0 8.0 0.00 0.00 0.00 60 1010.1
20260509193915 73 221 3.0 7.0 0.00 0.00 0.00 60 1010.4
20260509193337 72 223 1.0 5.0 0.00 0.00 0.00 62 1010.4
20260509192748 72 217 4.0 6.0 0.00 0.00 0.00 63 1010.4
20260509191527 71 204 3.0 6.0 0.00 0.00 0.00 63 1010.4
20260509190313 72 180 2.0 7.0 0.00 0.00 0.00 62 1010.4
20260509185750 72 144 3.0 10.0 0.00 0.00 0.00 59 1010.4
20260509185114 72 215 2.0 5.0 0.00 0.00 0.00 62 1010.4
20260509184531 71 185 2.0 6.0 0.00 0.00 0.00 63 1010.4
20260509183936 70 171 2.0 6.0 0.00 0.00 0.00 62 1010.4
20260509183343 70 219 6.0 6.0 0.00 0.00 0.00 66 1010.4
20260509182727 69 233 3.0 8.0 0.00 0.00 0.00 65 1010.4
20260509182153 68 208 3.0 6.0 0.00 0.00 0.00 65 1010.4
20260509181515 67 207 0.0 4.0 0.00 0.00 0.00 67 1010.4
20260509180942 67 228 2.0 4.0 0.00 0.00 0.00 66 1010.8
20260509180315 67 148 4.0 4.0 0.00 0.00 0.00 68 1010.8
20260509175737 67 160 1.0 5.0 0.00 0.00 0.00 70 1010.8
20260509175152 67 158 5.0 6.0 0.00 0.00 0.00 67 1010.8
20260509174526 67 133 4.0 6.0 0.00 0.00 0.00 67 1010.8
20260509173310 66 198 1.0 4.0 0.00 0.00 0.00 67 1011.1
20260509172726 66 184 3.0 7.0 0.00 0.00 0.00 68 1011.1
20260509171510 66 205 3.0 4.0 0.00 0.00 0.00 67 1011.1
20260509170921 66 155 3.0 5.0 0.00 0.00 0.00 66 1011.1
20260509170323 66 194 2.0 8.0 0.00 0.00 0.00 66 1011.1
20260509165719 66 167 3.0 4.0 0.00 0.00 0.00 66 1011.1
20260509165132 66 249 2.0 5.0 0.00 0.00 0.00 67 1011.1
20260509164539 66 135 4.0 6.0 0.00 0.00 0.00 65 1011.1
20260509163934 66 157 3.0 8.0 0.00 0.00 0.00 64 1011.1
20260509162115 66 141 4.0 7.0 0.00 0.00 0.00 65 1011.1
20260509161540 66 189 5.0 5.0 0.00 0.00 0.00 65 1011.1
20260509160930 66 192 2.0 5.0 0.00 0.00 0.00 66 1011.1
20260509160345 66 153 3.0 4.0 0.00 0.00 0.00 66 1011.1
20260509155716 65 158 2.0 6.0 0.00 0.00 0.00 65 1010.8
20260509154540 65 204 0.0 5.0 0.00 0.00 0.00 65 1010.8
20260509153940 65 211 0.0 3.0 0.00 0.00 0.00 67 1010.8
20260509153324 64 153 2.0 4.0 0.00 0.00 0.00 66 1010.8
20260509152127 64 188 0.0 2.0 0.00 0.00 0.00 65 1010.8
20260509150915 63 156 0.0 2.0 0.00 0.00 0.00 68 1010.8
20260509150315 63 148 1.0 3.0 0.00 0.00 0.00 70 1011.1
20260509145740 62 180 1.0 2.0 0.00 0.00 0.00 69 1011.1
20260509145127 62 234 0.0 2.0 0.00 0.00 0.00 69 1010.8
20260509144508 61 109 0.0 0.0 0.00 0.00 0.00 70 1011.1
20260509143907 61 112 0.0 1.0 0.00 0.00 0.00 71 1011.1
20260509142746 61 114 0.0 0.0 0.00 0.00 0.00 77 1011.1